User: anonymous   Login
Location: Dover
(39.1580°N, 75.5250°W)
Time: 22:31:09
(UTC-05:00)
Language:

SeaSat 1 - Orbit

View from above orbital plane
View from above orbital plane
View from above satellite
View from above satellite

Ground track
Ground track

The orbit data is extracted from the following two-line orbital elements,

1 10967U 78064A   18048.06917287 -.00000064  00000-0  21392-4 0  9991
2 10967 108.0164  91.2714 0001913 238.5099 121.5859 14.43696109 81945
Epoch (UTC): 17 February 2018 01:39:36
Eccentricity: 0.0001913
inclination: 108.0164°
perigee height: 745 km
apogee height: 747 km
right ascension of ascending node: 91.2714°
argument of perigee: 238.5099°
revolutions per day: 14.43696109
mean anomaly at epoch: 121.5859°
orbit number at epoch: 8194

The dashed part of the orbit path shows where the satellite is in the earth's shadow,  

DLR